星链-4192 (STARLINK-4192 )

导读 | 星芒AI

STARLINK-4192 是 SpaceX Starlink 项目中的一颗低轨卫星,用于提供全球宽带互联网服务。该卫星属于 Starlink 群体部署的一部分,旨在增强网络覆盖,提升连接速度和稳定性。它运行在约 550 公里的轨道高度,采用先进推进系统和激光通信技术,以减少地面基站依赖。STARLINK-4192 的发射和运行有助于推动 Starlink 在全球范围内的服务能力,特别是在偏远和网络基础设施不足的地区。

基本信息
目录编号:
52881
目录名称:
STARLINK-4192
国际标识:
2022-062BD
轨道中心:
EARTH
卫星名称:
星链-4192
卫星全名:
星链-4192 (STARLINK-4192 )
卫星状态:
已陨落 最后检测时间 2024-09-02
发射日期:
2022-06-17 UTC
国别 :
美国 (US)
星等 :
--
轨道信息
数据来源 国际轨道数据
星历时间: 2024-09-03T07:02:28+0800
轨道信息已过期432天
半长轴: 6511.008km
偏心率: 0.0004746
轨道倾角: 53.197°
近地点辐角 309.411°
升交点赤经 319.478°
平近点角 198.859°
近地点: 129.782km
远地点: 135.964km
周期: 87.143分钟
每日圈数: 16.524581
详细信息
固有亮度:
5
最大亮度:
2.5
卫星平台:
Starlink v1.5
覆盖范围:
全球
运营商:
太空探索技术公司
运营商所在国:
美国
制造商(研发单位):
太空探索技术公司
制造商所在国:
美国
使用方式:
暂无
卫星简介
星链(Starlink)计划是由太空探索技术公司(SpaceX)提出的一个巨型低轨卫星互联网星座项目,计划在2019年至2024年间在太空搭建由约1.2万颗卫星组成的“星链”网络,其中1584颗将部署在地球上空550千米处的近地轨道,并从2020年开始工作。该卫星仍在工作。